When you browse on this site, cookies collect data to enhance your experience and personalize the content and advertising you see.
Visit our Privacy Policy to learn more. By continuing to use the site, you agree to this use of cookies and data.
  • In Hungary
  • List of Countries
  • For 7 days
  • Water Temperature
  • Satellite Maps
  • Weather Map
  • News
  • Weather Widgets
  • user-avatar
    Login

    Hourly Weather Ustinovka

    Today, 17 November, Saturday

    Time Temperature Precipitation Wind Pressure Humidity
    00:00 -2°C° 0 mm 6 mps 764 mmHg 65%
    01:00 -2°C° 0 mm 5 mps 764 mmHg 68%
    02:00 -2°C° 0 mm 4 mps 764 mmHg 70%
    03:00 -2°C° 0 mm 5 mps 764 mmHg 71%
    04:00 -2°C° 0 mm 5 mps 764 mmHg 72%
    05:00 -2°C° 0 mm 5 mps 765 mmHg 73%
    06:00 -1°C° 0 mm 5 mps 765 mmHg 74%
    07:00 -1°C° 0 mm 5 mps 765 mmHg 75%
    08:00 -1°C° 0 mm 5 mps 765 mmHg 76%
    09:00 -1°C° 0 mm 5 mps 765 mmHg 73%
    10:00 0°C° 0 mm 5 mps 765 mmHg 71%
    11:00 0°C° 0 mm 5 mps 765 mmHg 68%
    12:00 0°C° 0 mm 5 mps 765 mmHg 63%
    13:00 +1°C° 0 mm 5 mps 765 mmHg 58%
    14:00 +1°C° 0 mm 4 mps 765 mmHg 53%
    15:00 +1°C° 0 mm 4 mps 765 mmHg 51%
    16:00 +2°C° 0 mm 3 mps 765 mmHg 48%
    17:00 +1°C° 0 mm 3 mps 765 mmHg 46%
    18:00 +1°C° 0 mm 3 mps 764 mmHg 45%
    19:00 +1°C° 0 mm 3 mps 764 mmHg 44%
    20:00 +1°C° 0 mm 3 mps 764 mmHg 44%
    21:00 +2°C° 0 mm 2 mps 764 mmHg 46%
    22:00 +1°C° 0 mm 2 mps 764 mmHg 48%
    23:00 +1°C° 0 mm 2 mps 763 mmHg 50%

    Tomorrow, 18 November, Sunday

    Time Temperature Precipitation Wind Pressure Humidity
    00:00 +1°C° 0 mm 2 mps 763 mmHg 51%
    01:00 +1°C° 0 mm 2 mps 763 mmHg 51%
    02:00 +1°C° 0 mm 1 mps 763 mmHg 52%
    03:00 -1°C° 0 mm 2 mps 762 mmHg 51%
    04:00 -1°C° 0 mm 2 mps 762 mmHg 51%
    05:00 -1°C° 0 mm 2 mps 761 mmHg 50%
    06:00 -1°C° 0 mm 2 mps 761 mmHg 50%
    07:00 -1°C° 0 mm 2 mps 761 mmHg 49%
    08:00 -1°C° 0 mm 2 mps 760 mmHg 48%
    09:00 +2°C° 0 mm 1 mps 760 mmHg 46%
    10:00 +3°C° 0 mm 1 mps 760 mmHg 43%
    11:00 +4°C° 0 mm 1 mps 760 mmHg 40%
    12:00 +4°C° 0 mm 1 mps 760 mmHg 39%
    13:00 +4°C° 0 mm 1 mps 759 mmHg 38%
    14:00 +5°C° 0 mm 1 mps 759 mmHg 37%
    15:00 +4°C° 0 mm 1 mps 759 mmHg 40%
    16:00 +3°C° 0 mm 1 mps 758 mmHg 43%
    17:00 +2°C° 0 mm 1 mps 758 mmHg 46%
    18:00 +2°C° 0 mm 1 mps 758 mmHg 49%
    19:00 +1°C° 0 mm 1 mps 758 mmHg 51%
    20:00 +1°C° 0 mm 1 mps 758 mmHg 54%
    21:00 +1°C° 0 mm 1 mps 758 mmHg 56%
    22:00 -2°C° 0 mm 2 mps 758 mmHg 59%
    23:00 -2°C° 0 mm 2 mps 758 mmHg 61%

    Day after tomorrow, 19 November, Monday

    Time Temperature Precipitation Wind Pressure Humidity
    00:00 -2°C° 0 mm 2 mps 758 mmHg 63%
    01:00 -2°C° 0 mm 2 mps 757 mmHg 64%
    02:00 -2°C° 0 mm 2 mps 757 mmHg 66%
    03:00 -2°C° 0 mm 2 mps 757 mmHg 65%
    04:00 -3°C° 0 mm 2 mps 757 mmHg 65%
    05:00 -4°C° 0 mm 3 mps 757 mmHg 64%
    06:00 -2°C° 0 mm 3 mps 757 mmHg 63%
    07:00 -2°C° 0 mm 3 mps 757 mmHg 61%
    08:00 -3°C° 0 mm 4 mps 757 mmHg 59%
    09:00 -2°C° 0 mm 4 mps 757 mmHg 60%
    10:00 -1°C° 0 mm 4 mps 757 mmHg 62%
    11:00 +1°C° 0 mm 4 mps 757 mmHg 64%
    12:00 +1°C° 0 mm 4 mps 757 mmHg 67%
    13:00 +1°C° 0 mm 5 mps 756 mmHg 70%
    14:00 +1°C° 0 mm 5 mps 756 mmHg 73%
    15:00 +1°C° 0.1 mm 5 mps 756 mmHg 75%
    16:00 +1°C° 0.1 mm 5 mps 755 mmHg 77%
    17:00 +1°C° 0.1 mm 6 mps 755 mmHg 79%
    18:00 +1°C° 0.5 mm 6 mps 755 mmHg 80%
    19:00 0°C° 0.5 mm 7 mps 754 mmHg 81%
    20:00 0°C° 0.5 mm 7 mps 754 mmHg 82%
    21:00 0°C° 1.3 mm 7 mps 754 mmHg 83%
    22:00 0°C° 1.3 mm 7 mps 753 mmHg 85%
    23:00 0°C° 1.3 mm 7 mps 753 mmHg 87%

    20 November, Tuesday

    Time Temperature Precipitation Wind Pressure Humidity
    00:00 0°C° 2.3 mm 7 mps 753 mmHg 88%
    01:00 0°C° 2.3 mm 7 mps 753 mmHg 89%
    02:00 -1°C° 2.3 mm 8 mps 753 mmHg 90%
    03:00 -1°C° 1.1 mm 7 mps 753 mmHg 90%
    04:00 -1°C° 1.1 mm 7 mps 753 mmHg 90%
    05:00 -1°C° 1.1 mm 7 mps 753 mmHg 91%
    06:00 -1°C° 0.2 mm 7 mps 753 mmHg 90%
    07:00 -1°C° 0.2 mm 7 mps 754 mmHg 90%
    08:00 -1°C° 0.2 mm 6 mps 754 mmHg 90%
    09:00 -1°C° 0 mm 6 mps 755 mmHg 89%
    10:00 0°C° 0 mm 5 mps 755 mmHg 89%
    11:00 0°C° 0 mm 5 mps 756 mmHg 89%
    12:00 +1°C° 0 mm 5 mps 756 mmHg 89%
    13:00 +1°C° 0 mm 5 mps 756 mmHg 89%
    14:00 +1°C° 0 mm 5 mps 756 mmHg 89%
    15:00 0°C° 0 mm 5 mps 757 mmHg 90%
    16:00 0°C° 0 mm 4 mps 757 mmHg 91%
    17:00 0°C° 0 mm 4 mps 757 mmHg 92%
    18:00 +1°C° 0 mm 3 mps 757 mmHg 92%
    19:00 0°C° 0 mm 3 mps 757 mmHg 92%
    20:00 0°C° 0 mm 3 mps 758 mmHg 92%
    21:00 0°C° 0 mm 3 mps 758 mmHg 93%
    22:00 0°C° 0 mm 3 mps 758 mmHg 93%
    23:00 +1°C° 0 mm 2 mps 758 mmHg 93%

    21 November, Wednesday

    Time Temperature Precipitation Wind Pressure Humidity
    00:00 +1°C° 0 mm 2 mps 757 mmHg 94%
    01:00 -1°C° 0 mm 2 mps 757 mmHg 94%
    02:00 -1°C° 0 mm 2 mps 757 mmHg 94%
    03:00 -2°C° 0 mm 2 mps 757 mmHg 94%
    04:00 -2°C° 0 mm 3 mps 757 mmHg 94%
    05:00 -2°C° 0 mm 3 mps 756 mmHg 94%
    06:00 -2°C° 0 mm 3 mps 756 mmHg 93%
    07:00 -2°C° 0 mm 3 mps 756 mmHg 92%
    08:00 -2°C° 0 mm 3 mps 756 mmHg 91%
    09:00 -2°C° 0 mm 4 mps 756 mmHg 87%
    10:00 -1°C° 0 mm 4 mps 756 mmHg 84%
    11:00 0°C° 0 mm 4 mps 756 mmHg 81%
    12:00 0°C° 0 mm 4 mps 756 mmHg 80%
    13:00 0°C° 0 mm 4 mps 756 mmHg 78%
    14:00 +2°C° 0 mm 3 mps 755 mmHg 77%
    15:00 +1°C° 0 mm 4 mps 755 mmHg 78%
    16:00 0°C° 0 mm 4 mps 755 mmHg 78%
    17:00 0°C° 0 mm 4 mps 755 mmHg 78%
    18:00 0°C° 0 mm 4 mps 756 mmHg 77%
    19:00 -1°C° 0 mm 4 mps 756 mmHg 76%
    20:00 -1°C° 0 mm 5 mps 756 mmHg 75%
    21:00 -1°C° 0 mm 4 mps 756 mmHg 76%
    22:00 -2°C° 0 mm 4 mps 756 mmHg 77%
    23:00 -2°C° 0 mm 4 mps 756 mmHg 78%

    22 November, Thursday

    Time Temperature Precipitation Wind Pressure Humidity
    00:00 -3°C° 0 mm 4 mps 756 mmHg 78%
    01:00 -3°C° 0 mm 4 mps 756 mmHg 79%
    02:00 -4°C° 0 mm 4 mps 756 mmHg 80%
    03:00 -4°C° 0 mm 4 mps 757 mmHg 81%
    04:00 -4°C° 0 mm 4 mps 757 mmHg 82%
    05:00 -4°C° 0 mm 4 mps 757 mmHg 83%
    06:00 -4°C° 0 mm 4 mps 757 mmHg 82%
    07:00 -4°C° 0 mm 4 mps 758 mmHg 82%
    08:00 -4°C° 0 mm 4 mps 758 mmHg 81%
    09:00 -3°C° 0 mm 4 mps 758 mmHg 77%
    10:00 -2°C° 0 mm 4 mps 759 mmHg 72%
    11:00 -1°C° 0 mm 4 mps 759 mmHg 67%
    12:00 -1°C° 0 mm 4 mps 759 mmHg 66%
    13:00 0°C° 0 mm 4 mps 759 mmHg 66%
    14:00 0°C° 0 mm 4 mps 759 mmHg 65%
    15:00 -1°C° 0 mm 4 mps 759 mmHg 70%
    16:00 -1°C° 0 mm 3 mps 759 mmHg 75%
    17:00 -2°C° 0 mm 3 mps 759 mmHg 81%
    18:00 -4°C° 0 mm 3 mps 760 mmHg 82%
    19:00 -4°C° 0 mm 3 mps 760 mmHg 83%
    20:00 -4°C° 0 mm 3 mps 760 mmHg 85%
    21:00 -4°C° 0 mm 3 mps 761 mmHg 85%
    22:00 -5°C° 0 mm 3 mps 761 mmHg 86%
    23:00 -5°C° 0 mm 3 mps 761 mmHg 86%
    Show more